STARLINK-30498, 57971

Orbit data source: Space-Track

STARLINK-30498, 57971 is a payload satellite owned by SpaceX/Seattle (US) in LEO that was launched on Sat, 30 Sep 2023 UTC via an FALCON 9 launch vehicle from the Air Force Eastern Test Range (AFETR). Payload-class satellites include a variety of spacecraft equipped with specific instruments for various scientific and technological missions. These include communications satellites like Starlink; space stations such as the ISS; scientific satellites like the Hubble; Earth observation satellites from companies like Planet Labs, Umbra, and HawkEye 360; GPS; miniature CubeSats for education and research; and military/defense satellites.

Loading next visibility...
Identifier
57971, 2023-151H
Orbit
LEO
Country
Flag of USUS
Related business
Manufacturer
SpaceX/Seattle
Mission
Operational Commercial Communications
Bus & Motor
STARLINK V2M, Unknown motor
Mass
730 kg wet, ~700 kg dry
Launch date (UTC)
2023-09-30 (3 years ago)
Launch vehicle
FALCON 9
Launch site
Air Force Eastern Test Range (AFETR)
Object type
Payload
Rocket body
Debris
Shape & HBR
Box + 2 Pan, 17.7 m
Radar Cross Section
33.884 m², Large (>1 m²)

Expand to show TLE details & history
Last TLE update: 13 hours ago

TLE from 13 hours ago
0 STARLINK-30498
1 57971U 23151H   26130.00142207  .00000265  00000-0  19184-4 0  9999
2 57971  43.0069 349.7030 0002360 270.9098  89.1483 15.27573122145148
Epoch: 2026-05-10T00:02Z
TLE epoch observation values (Epoch: 2026-05-10T00:02:02.866Z)
Latitude
-0.00006°
Longitude
121.38023°
Altitude
482.822 km
Speed
7.626 km/s
True Right ascension
23h 18m 48s
True Declination
0° 00' 00"
Sunlit
Object was in daylight at epoch
Visualization orbit readout
Latitude
Unknown
Longitude
Unknown
Altitude
Unknown
Speed
Unknown
Apparent Right ascension
Unknown
Apparent Declination
Unknown
Sunlit
N/A
Visualization observer readout
Local Sidereal Time
21:24:50
Azimuth
Unknown
Elevation
Unknown
Doppler factor
Unknown
Orbital elements
Apogee altitude
486.633 km
Perigee altitude
483.394 km
Semi-major axis
6,863.151 km
Eccentricity
0.00024
Inclination
43.0069°
RAAN
349.703°
Arg. of periapsis
270.9098°
True anomaly
89.17534°
Mean anomaly
89.1483°
Eccentric anomaly
89.16182°
Mean motion
3.81731 °/min
Orbital period
94.31 mins
BSTAR
0.000019184
Loading maneuver chart data...
Computing Atmospheric mass density...
Loading historical data...
Loading historical data...
Loading historical data...
Loading historical data...
Loading historical data...
Loading historical data...
Loading historical data...

Documentation

Showing up to 5 results
|